Location: Croydon
(51.3762°N, 0.0982°W)
Time: 18:05:16
(UTC+00:00)

Altair - Pass Details

Date: 15 November 2019
Orbit: 1502 x 1682 km, 47.2° (Epoch: 07 December)

Event Time Altitude Azimuth Distance (km) Brightness Sun altitude
Rises 05:39:35 0° 247° (WSW) 4,631 - -15.1°
Exits shadow 05:42:24 - 245° (WSW) 3,715 9.0 -14.7°
Reaches altitude 10° 05:42:36 10° 245° (WSW) 3,652 9.0 -14.6°
Maximum altitude 05:51:37 64° 166° (SSE) 1,653 7.8 -13.3°
Drops below altitude 10° 06:00:50 10° 88° (E) 3,736 10.9 -11.9°
Sets 06:03:58 0° 86° (E) 4,743 11.6 -11.4°
